Regional Weather Roundup
Issued by NWS

Home | Current Version | Previous Version | Graphics & Text | Print | Product List | Glossary Off
Versions: 1 2 3 4 5 6 7 8 9 10 11 12 13 14 15 16 17 18 19 20 21 22 23 24 25 26 27 28 29 30 31 32 33 34 35 36 37 38 39 40 41 42 43 44 45 46 47 48 49 50

000
ASUS43 KDMX 260906
RWRIA

WEATHER ROUNDUP FOR IOWA
NATIONAL WEATHER SERVICE DES MOINES IA
400 AM CDT TUE SEP 26 2017

NOTE: "FAIR" INDICATES FEW OR NO CLOUDS BELOW 12,000 FEET WITH NO
SIGNIFICANT WEATHER AND/OR OBSTRUCTIONS TO VISIBILITY.

* - THESE STATIONS ARE NOT NWS STATIONS...THUS NOT UNDER NWS
QUALITY CONTROL.  THEY ALSO DO NOT REPORT WEATHER SUCH
AS PRECIPITATION OR FOG.

IAZ001>003-012>014-020>022-031>034-043>046-261000-
   NORTHWEST IOWA

CITY           SKY/WX    TMP DP  RH WIND       PRES   REMARKS
CARROLL *      CLOUDY    63  63 100 NW7       29.94S
CHEROKEE *     CLOUDY    55  55 100 NW7       29.98R FOG
DENISON *      CLOUDY    59  59 100 NW8       29.98R FOG
LE MARS *      CLOUDY    54  52  94 N9        30.00S
ORANGE CITY *  DRIZZLE   54  54 100 N8        30.00S
SHELDON *      LGT RAIN  52  52 100 NW9       29.99R
SIOUX CITY     CLOUDY    53  53 100 NW13      30.01R
SPENCER        LGT RAIN  56  56 100 NW8       29.96S FOG
STORM LAKE *   CLOUDY    57  57 100 NW8       29.97R
$$

IAZ055>058-069>071-079>083-090>094-261000-
   SOUTHWEST IOWA

CITY           SKY/WX    TMP DP  RH WIND       PRES   REMARKS
ATLANTIC *     CLOUDY    63  63 100 W8        29.95R
AUDUBON *      CLOUDY    63  61  94 NW5       29.96R FOG
CLARINDA *     CLOUDY    66  66 100 NW8       29.98R
COUNCIL BLFS * CLOUDY    57  57 100 NW9       29.98S FOG
CRESTON *      FOG       66  66 100 W5        29.96R VSB 1/2
HARLAN  *      CLOUDY    59  59 100 NW14      30.00R
LAMONI         MOCLDY    67  66  97 E3        29.92F
RED OAK *      CLOUDY    61  61 100 W9        29.97R
SHENANDOAH *   CLOUDY    61  59  94 NW6G12    29.99R
$$

IAZ047>049-059>061-072>074-084-261000-
   CENTRAL IOWA

CITY           SKY/WX    TMP DP  RH WIND       PRES   REMARKS
AMES           CLOUDY    66  66 100 S5        29.92S FOG
ANKENY *       CLOUDY    66  64  94 CALM      29.92F FOG
BOONE *        CLOUDY    66  64  94 CALM      29.91S FOG
CHARITON *     CLOUDY    66  64  94 CALM      29.93S
DES MOINES     CLOUDY    66  66 100 SE6       29.91F
GRINNELL*      LGT RAIN  65  64  96 CALM      29.95S
KNOXVILLE *    CLOUDY    66  64  94 CALM      29.91F FOG
MARSHALLTOWN   LGT RAIN  65  65 100 CALM      29.92F
NEWTON *       CLOUDY    64  64 100 E3        29.93F FOG
PELLA *        RAIN      66  65  96 CALM      29.94F
PERRY *        DRZL/FOG  65  64  99 CALM      29.92F VSB 3/4
$$

IAZ004>006-015-016-023>025-035-036-261000-
   NORTH CENTRAL IOWA

CITY           SKY/WX    TMP DP  RH WIND       PRES   REMARKS
ALGONA *       RAIN      59  59 100 CALM      29.94R
CLARION *      CLOUDY    63  63 100 CALM      29.92F FOG
ESTHERVILLE    LGT RAIN  56  56 100 NW5       29.95R FOG
FORT DODGE *   LGT RAIN  60  60 100 CALM      29.94R
MASON CITY     LGT RAIN  64  63  96 S5        29.94F
FOREST CITY *  DRIZZLE   63  63 100 CALM      29.92F
WEBSTER CITY * FOG       63  63 100 CALM      29.91S VSB 1
IOWA FALLS *   DRIZZLE   65  64  98 CALM      29.94S
$$

IAZ007>011-017>019-026>030-037>042-050>054-066-261000-
   NORTHEAST IOWA

CITY           SKY/WX    TMP DP  RH WIND       PRES   REMARKS
CEDAR RAPIDS   CLOUDY    67  65  93 SE5       29.91
CHARLES CITY * CLOUDY    64  64 100 W3        29.94R FOG
DECORAH *      CLOUDY    64  64 100 CALM      29.90F
DUBUQUE        CLOUDY    67  64  90 CALM      29.93S
MONTICELLO *   CLOUDY    66  66 100 CALM      29.91S
OELWEIN *      CLOUDY    64  64 100 W7        29.94R
WATERLOO       CLOUDY    64  63  96 W3        29.92S
$$

IAZ064-065-067-068-078-261000-
   EAST CENTRAL IOWA

CITY           SKY/WX    TMP DP  RH WIND       PRES   REMARKS
DAVENPORT      MOCLDY    69  66  90 E8        29.93F
MUSCATINE *    CLOUDY    70  66  88 CALM      29.91S
QUAD CITIES    CLOUDY    70  67  90 S5        29.91S
$$

IAZ062-063-075>077-085>089-095>099-261000-
   SOUTHEAST IOWA

CITY           SKY/WX    TMP DP  RH WIND       PRES   REMARKS
BURLINGTON     CLOUDY    70  68  93 E3        29.91S
FAIRFIELD *    CLOUDY    68  64  88 VRB6G21   29.92R
FORT MADISON * CLOUDY    68  68 100 CALM      29.92F
KEOKUK *       CLOUDY    70  66  88 CALM      29.91S
OSKALOOSA *    LGT RAIN  65  64  95 MISG      29.95F
OTTUMWA        CLOUDY    67  65  93 NW7       29.94F
WASHINGTON *   CLOUDY    66  66 100 CALM      29.92S
$$

ABBREVIATIONS USED IN REMARKS
   TC - TEMPERATURES IN CELSIUS
  WCI - WIND CHILL INDEX
   HX - HEAT INDEX
  VSB - VISIBILITY
$$




USA.gov is the U.S. government's official web portal to all federal, state and local government web resources and services.